Time,TemperatureF,DewpointF,PressureIn,WindDirection,WindDirectionDegrees,WindSpeedMPH,WindSpeedGustMPH,Humidity,HourlyPrecipIn,Conditions,Clouds,dailyrainin,SolarRadiationWatts/m^2,SoftwareType,DateUTC
2013-08-31 00:05:00,67.0,-99.9,29.73,WNW,284,1.0,1.0,0,0.00,,,0.00,0,Wunderground v.1.15,2013-08-31 04:05:00,
2013-08-31 00:35:00,66.5,-99.9,29.74,WNW,284,0.0,0.0,0,0.00,,,0.00,0,Wunderground v.1.15,2013-08-31 04:35:00,
2013-08-31 01:05:00,66.6,-99.9,29.73,WNW,283,0.0,0.0,0,0.00,,,0.00,0,Wunderground v.1.15,2013-08-31 05:05:00,
2013-08-31 01:35:00,68.1,-99.9,29.74,North,351,1.0,1.0,0,0.00,,,0.00,0,Wunderground v.1.15,2013-08-31 05:35:00,
2013-08-31 02:05:00,67.7,-99.9,29.79,NNE,12,2.0,12.0,0,0.00,,,0.00,0,Wunderground v.1.15,2013-08-31 06:05:00,
2013-08-31 02:35:00,67.1,-99.9,29.75,NNE,32,5.0,7.0,0,0.16,,,0.25,0,Wunderground v.1.15,2013-08-31 06:35:00,
2013-08-31 03:05:00,66.9,-99.9,29.74,East,92,2.0,4.0,0,0.00,,,0.25,0,Wunderground v.1.15,2013-08-31 07:05:00,
2013-08-31 03:35:00,66.6,-99.9,29.72,ESE,104,4.0,13.0,0,0.73,,,0.32,0,Wunderground v.1.15,2013-08-31 07:35:00,
2013-08-31 04:05:00,66.5,-99.9,29.74,SE,130,4.0,4.0,0,0.00,,,0.38,0,Wunderground v.1.15,2013-08-31 08:05:00,
2013-08-31 04:35:00,66.2,-99.9,29.75,ENE,78,0.0,0.0,0,0.00,,,0.38,0,Wunderground v.1.15,2013-08-31 08:35:00,
2013-08-31 05:05:00,65.9,-99.9,29.75,WSW,258,4.0,4.0,0,0.00,,,0.38,0,Wunderground v.1.15,2013-08-31 09:05:00,
2013-08-31 05:35:00,65.2,-99.9,29.76,WSW,256,3.0,4.0,0,0.00,,,0.38,0,Wunderground v.1.15,2013-08-31 09:35:00,
2013-08-31 06:05:00,64.6,-99.9,29.78,WSW,256,1.0,4.0,0,0.00,,,0.38,0,Wunderground v.1.15,2013-08-31 10:05:00,
2013-08-31 06:35:00,64.6,-99.9,29.78,WSW,256,0.0,0.0,0,0.00,,,0.38,51,Wunderground v.1.15,2013-08-31 10:35:00,
2013-08-31 07:05:00,65.2,-99.9,29.78,WSW,256,0.0,0.0,0,0.00,,,0.38,53,Wunderground v.1.15,2013-08-31 11:05:00,
2013-08-31 07:35:00,65.6,-99.9,29.78,NNE,32,2.0,4.0,0,0.00,,,0.38,69,Wunderground v.1.15,2013-08-31 11:35:00,
2013-08-31 08:05:00,66.1,-99.9,29.78,NNE,32,3.0,3.0,0,0.00,,,0.38,74,Wunderground v.1.15,2013-08-31 12:05:00,
2013-08-31 08:35:00,67.0,-99.9,29.77,East,99,3.0,3.0,0,0.00,,,0.38,176,Wunderground v.1.15,2013-08-31 12:35:00,
2013-08-31 09:05:00,71.2,-99.9,29.79,SSW,212,2.0,2.0,0,0.00,,,0.38,555,Wunderground v.1.15,2013-08-31 13:05:00,
2013-08-31 09:35:00,74.7,-99.9,29.79,SSW,199,0.0,1.0,0,0.00,,,0.38,297,Wunderground v.1.15,2013-08-31 13:35:00,
2013-08-31 10:05:00,72.2,-99.9,29.79,SSW,199,1.0,2.0,0,0.00,,,0.38,517,Wunderground v.1.15,2013-08-31 14:05:00,
2013-08-31 10:35:00,72.8,-99.9,29.79,SSW,199,1.0,1.0,0,0.00,,,0.38,415,Wunderground v.1.15,2013-08-31 14:35:00,
2013-08-31 11:05:00,78.3,-99.9,29.79,SSW,199,1.0,4.0,0,0.00,,,0.38,782,Wunderground v.1.15,2013-08-31 15:05:00,
2013-08-31 11:35:00,74.6,-99.9,29.78,SSW,199,0.0,2.0,0,0.00,,,0.38,427,Wunderground v.1.15,2013-08-31 15:35:00,
2013-08-31 12:05:00,74.4,-99.9,29.77,SSW,199,1.0,2.0,0,0.00,,,0.00,751,Wunderground v.1.15,2013-08-31 16:05:00,
2013-08-31 12:35:00,73.3,-99.9,29.77,SE,136,5.0,5.0,0,0.00,,,0.00,726,Wunderground v.1.15,2013-08-31 16:35:00,
2013-08-31 13:05:00,75.1,-99.9,29.76,ESE,122,2.0,2.0,0,0.00,,,0.00,717,Wunderground v.1.15,2013-08-31 17:05:00,
2013-08-31 13:35:00,73.8,-99.9,29.76,East,80,7.0,8.0,0,0.00,,,0.00,686,Wunderground v.1.15,2013-08-31 17:35:00,
2013-08-31 14:05:00,75.0,-99.9,29.76,SE,126,5.0,6.0,0,0.00,,,0.00,91,Wunderground v.1.15,2013-08-31 18:05:00,
2013-08-31 14:35:00,77.4,-99.9,29.77,SE,124,4.0,4.0,0,0.00,,,0.00,104,Wunderground v.1.15,2013-08-31 18:35:00,
2013-08-31 15:05:00,76.1,-99.9,29.76,ESE,118,2.0,2.0,0,0.00,,,0.00,295,Wunderground v.1.15,2013-08-31 19:05:00,
2013-08-31 15:35:00,76.8,-99.9,29.76,WSW,257,3.0,4.0,0,0.00,,,0.00,278,Wunderground v.1.15,2013-08-31 19:35:00,
2013-08-31 16:05:00,70.0,-99.9,29.77,East,97,3.0,5.0,0,0.00,,,0.00,190,Wunderground v.1.15,2013-08-31 20:05:00,
2013-08-31 16:35:00,70.2,-99.9,29.76,SSE,150,2.0,3.0,0,0.00,,,0.00,111,Wunderground v.1.15,2013-08-31 20:35:00,
2013-08-31 17:05:00,71.4,-99.9,29.76,WSW,242,2.0,2.0,0,0.00,,,0.00,118,Wunderground v.1.15,2013-08-31 21:05:00,
2013-08-31 17:35:00,72.4,-99.9,29.76,WSW,242,2.0,2.0,0,0.00,,,0.00,40,Wunderground v.1.15,2013-08-31 21:35:00,
2013-08-31 18:05:00,68.1,-99.9,29.76,SSE,151,2.0,3.0,0,0.00,,,0.00,14,Wunderground v.1.15,2013-08-31 22:05:00,
2013-08-31 18:35:00,68.5,-99.9,29.77,SSE,151,1.0,2.0,0,0.00,,,0.00,5,Wunderground v.1.15,2013-08-31 22:35:00,
2013-08-31 19:05:00,68.3,-99.9,29.76,SSE,149,2.0,2.0,0,0.00,,,0.00,5,Wunderground v.1.15,2013-08-31 23:05:00,
2013-08-31 19:35:00,67.8,-99.9,29.76,SE,139,4.0,4.0,0,0.00,,,0.00,0,Wunderground v.1.15,2013-08-31 23:35:00,
2013-08-31 20:05:00,67.5,-99.9,29.77,East,95,2.0,2.0,0,0.00,,,0.00,0,Wunderground v.1.15,2013-09-01 00:05:00,
2013-08-31 20:35:00,67.0,-99.9,29.77,ESE,123,2.0,4.0,0,0.00,,,0.00,0,Wunderground v.1.15,2013-09-01 00:35:00,
2013-08-31 21:05:00,66.9,-99.9,29.77,SE,125,2.0,2.0,0,0.00,,,0.00,0,Wunderground v.1.15,2013-09-01 01:05:00,
2013-08-31 21:35:00,66.2,-99.9,29.77,SE,125,2.0,5.0,0,0.00,,,0.00,0,Wunderground v.1.15,2013-09-01 01:35:00,
2013-08-31 22:05:00,66.0,-99.9,29.77,ESE,112,3.0,4.0,0,0.00,,,0.00,0,Wunderground v.1.15,2013-09-01 02:05:00,
2013-08-31 22:35:00,65.7,-99.9,29.77,ESE,116,2.0,2.0,0,0.00,,,0.00,0,Wunderground v.1.15,2013-09-01 02:35:00,
2013-08-31 23:05:00,65.2,-99.9,29.77,SE,131,3.0,5.0,0,0.00,,,0.00,0,Wunderground v.1.15,2013-09-01 03:05:00,
2013-08-31 23:35:00,65.1,-99.9,29.76,ESE,107,4.0,4.0,0,0.00,,,0.00,0,Wunderground v.1.15,2013-09-01 03:35:00,